• In Deutschland
  • Länderverzeichnis
  • Für 7 Tage
  • Wassertemperatur
  • Satellitenkarten
  • Wetterkarte
  • Widgets
  • user-avatar
    Anmelden

    Stündliche Wetter Hoeryŏng

    Heute, 19 Juli, Donnerstag

    Zeit Temperatur Niederschläge Wind Luftdruck Luftfeuchtigkeit
    00:00 +24°C° 0 mm 0 m/S 752 mmHg 78%
    01:00 +23°C° 0 mm 0 m/S 752 mmHg 79%
    02:00 +25°C° 0 mm 1 m/S 752 mmHg 80%
    03:00 +23°C° 0 mm 0 m/S 752 mmHg 81%
    04:00 +22°C° 0 mm 0 m/S 752 mmHg 81%
    05:00 +22°C° 0 mm 0 m/S 753 mmHg 82%
    06:00 +24°C° 0 mm 0 m/S 753 mmHg 74%
    07:00 +26°C° 0 mm 0 m/S 753 mmHg 66%
    08:00 +28°C° 0 mm 0 m/S 753 mmHg 59%
    09:00 +31°C° 0 mm 1 m/S 753 mmHg 55%
    10:00 +33°C° 0 mm 1 m/S 752 mmHg 50%
    11:00 +35°C° 0 mm 2 m/S 752 mmHg 46%
    12:00 +36°C° 0 mm 2 m/S 752 mmHg 45%
    13:00 +36°C° 0 mm 2 m/S 751 mmHg 45%
    14:00 +36°C° 0 mm 2 m/S 751 mmHg 49%
    15:00 +35°C° 0 mm 2 m/S 751 mmHg 52%
    16:00 +35°C° 0 mm 2 m/S 751 mmHg 55%
    17:00 +34°C° 0 mm 2 m/S 751 mmHg 58%
    18:00 +32°C° 0 mm 2 m/S 751 mmHg 64%
    19:00 +30°C° 0 mm 2 m/S 751 mmHg 71%
    20:00 +28°C° 0 mm 1 m/S 751 mmHg 77%
    21:00 +28°C° 0 mm 1 m/S 751 mmHg 79%
    22:00 +27°C° 0 mm 1 m/S 751 mmHg 81%
    23:00 +27°C° 0 mm 1 m/S 751 mmHg 82%

    Morgen, 20 Juli, Freitag

    Zeit Temperatur Niederschläge Wind Luftdruck Luftfeuchtigkeit
    00:00 +26°C° 0 mm 1 m/S 751 mmHg 84%
    01:00 +24°C° 0 mm 0 m/S 751 mmHg 85%
    02:00 +24°C° 0 mm 0 m/S 751 mmHg 86%
    03:00 +24°C° 0 mm 0 m/S 751 mmHg 86%
    04:00 +24°C° 0 mm 0 m/S 751 mmHg 87%
    05:00 +23°C° 0 mm 0 m/S 751 mmHg 87%
    06:00 +25°C° 0 mm 0 m/S 751 mmHg 80%
    07:00 +27°C° 0 mm 0 m/S 751 mmHg 73%
    08:00 +29°C° 0 mm 0 m/S 751 mmHg 66%
    09:00 +33°C° 0 mm 1 m/S 751 mmHg 60%
    10:00 +34°C° 0 mm 1 m/S 751 mmHg 53%
    11:00 +35°C° 0 mm 1 m/S 751 mmHg 47%
    12:00 +37°C° 0 mm 2 m/S 751 mmHg 45%
    13:00 +37°C° 0 mm 2 m/S 750 mmHg 43%
    14:00 +38°C° 0 mm 2 m/S 750 mmHg 41%
    15:00 +37°C° 0 mm 2 m/S 750 mmHg 45%
    16:00 +37°C° 0 mm 2 m/S 749 mmHg 49%
    17:00 +36°C° 0 mm 2 m/S 749 mmHg 53%
    18:00 +34°C° 0 mm 2 m/S 750 mmHg 58%
    19:00 +31°C° 0 mm 1 m/S 750 mmHg 64%
    20:00 +29°C° 0 mm 1 m/S 750 mmHg 70%
    21:00 +29°C° 0 mm 1 m/S 750 mmHg 72%
    22:00 +28°C° 0 mm 1 m/S 750 mmHg 74%
    23:00 +28°C° 0 mm 1 m/S 751 mmHg 76%

    übermorgen, 21 Juli, Samstag

    Zeit Temperatur Niederschläge Wind Luftdruck Luftfeuchtigkeit
    00:00 +27°C° 0 mm 1 m/S 750 mmHg 77%
    01:00 +27°C° 0 mm 1 m/S 750 mmHg 79%
    02:00 +27°C° 0 mm 1 m/S 750 mmHg 80%
    03:00 +27°C° 0 mm 1 m/S 750 mmHg 81%
    04:00 +27°C° 0 mm 1 m/S 750 mmHg 81%
    05:00 +26°C° 0 mm 1 m/S 750 mmHg 82%
    06:00 +27°C° 0 mm 0 m/S 750 mmHg 74%
    07:00 +29°C° 0 mm 0 m/S 750 mmHg 67%
    08:00 +31°C° 0 mm 0 m/S 750 mmHg 59%
    09:00 +32°C° 0 mm 0 m/S 750 mmHg 54%
    10:00 +36°C° 0 mm 1 m/S 750 mmHg 48%
    11:00 +39°C° 0 mm 1 m/S 750 mmHg 42%
    12:00 +39°C° 0 mm 1 m/S 750 mmHg 40%
    13:00 +40°C° 0 mm 2 m/S 749 mmHg 39%
    14:00 +40°C° 0 mm 2 m/S 749 mmHg 37%
    15:00 +39°C° 0 mm 2 m/S 749 mmHg 41%
    16:00 +39°C° 0 mm 2 m/S 748 mmHg 45%
    17:00 +38°C° 0 mm 2 m/S 748 mmHg 49%
    18:00 +36°C° 0 mm 2 m/S 748 mmHg 53%
    19:00 +33°C° 0 mm 1 m/S 748 mmHg 57%
    20:00 +31°C° 0 mm 1 m/S 749 mmHg 62%
    21:00 +31°C° 0 mm 1 m/S 749 mmHg 64%
    22:00 +30°C° 0 mm 1 m/S 749 mmHg 66%
    23:00 +29°C° 0 mm 1 m/S 749 mmHg 68%

    22 Juli, Sonntag

    Zeit Temperatur Niederschläge Wind Luftdruck Luftfeuchtigkeit
    00:00 +29°C° 0 mm 1 m/S 749 mmHg 70%
    01:00 +29°C° 0 mm 1 m/S 749 mmHg 71%
    02:00 +28°C° 0 mm 1 m/S 748 mmHg 72%
    03:00 +28°C° 0 mm 1 m/S 749 mmHg 73%
    04:00 +28°C° 0 mm 1 m/S 749 mmHg 74%
    05:00 +28°C° 0 mm 1 m/S 749 mmHg 75%
    06:00 +30°C° 0 mm 1 m/S 749 mmHg 69%
    07:00 +32°C° 0 mm 1 m/S 749 mmHg 64%
    08:00 +34°C° 0 mm 1 m/S 749 mmHg 59%
    09:00 +35°C° 0 mm 1 m/S 749 mmHg 54%
    10:00 +37°C° 0 mm 1 m/S 749 mmHg 49%
    11:00 +39°C° 0 mm 1 m/S 748 mmHg 44%
    12:00 +40°C° 0 mm 2 m/S 748 mmHg 42%
    13:00 +40°C° 0 mm 2 m/S 748 mmHg 40%
    14:00 +41°C° 0 mm 2 m/S 747 mmHg 39%
    15:00 +40°C° 0 mm 2 m/S 747 mmHg 42%
    16:00 +39°C° 0 mm 2 m/S 747 mmHg 46%
    17:00 +38°C° 0 mm 3 m/S 747 mmHg 50%
    18:00 +36°C° 0 mm 2 m/S 747 mmHg 54%
    19:00 +34°C° 0 mm 2 m/S 747 mmHg 58%
    20:00 +31°C° 0 mm 2 m/S 748 mmHg 62%
    21:00 +31°C° 0 mm 1 m/S 748 mmHg 64%
    22:00 +30°C° 0 mm 1 m/S 748 mmHg 67%
    23:00 +29°C° 0 mm 1 m/S 748 mmHg 69%

    23 Juli, Montag

    Zeit Temperatur Niederschläge Wind Luftdruck Luftfeuchtigkeit
    00:00 +29°C° 0 mm 1 m/S 748 mmHg 71%
    01:00 +28°C° 0 mm 1 m/S 748 mmHg 72%
    02:00 +26°C° 0 mm 0 m/S 748 mmHg 74%
    03:00 +26°C° 0 mm 0 m/S 748 mmHg 75%
    04:00 +26°C° 0 mm 0 m/S 748 mmHg 76%
    05:00 +25°C° 0 mm 0 m/S 748 mmHg 77%
    06:00 +27°C° 0 mm 0 m/S 748 mmHg 71%
    07:00 +31°C° 0 mm 1 m/S 748 mmHg 65%
    08:00 +33°C° 0 mm 1 m/S 748 mmHg 59%
    09:00 +35°C° 0 mm 1 m/S 748 mmHg 53%
    10:00 +36°C° 0 mm 1 m/S 748 mmHg 48%
    11:00 +39°C° 0 mm 1 m/S 748 mmHg 42%
    12:00 +39°C° 0 mm 2 m/S 748 mmHg 40%
    13:00 +40°C° 0 mm 2 m/S 747 mmHg 39%
    14:00 +40°C° 0 mm 2 m/S 747 mmHg 37%
    15:00 +39°C° 0 mm 2 m/S 747 mmHg 41%
    16:00 +39°C° 0 mm 2 m/S 747 mmHg 44%
    17:00 +38°C° 0 mm 2 m/S 747 mmHg 48%
    18:00 +36°C° 0 mm 2 m/S 747 mmHg 51%
    19:00 +34°C° 0 mm 2 m/S 747 mmHg 55%
    20:00 +32°C° 0 mm 2 m/S 748 mmHg 58%
    21:00 +31°C° 0 mm 1 m/S 748 mmHg 61%
    22:00 +31°C° 0 mm 1 m/S 748 mmHg 64%
    23:00 +30°C° 0 mm 1 m/S 748 mmHg 66%

    24 Juli, Dienstag

    Zeit Temperatur Niederschläge Wind Luftdruck Luftfeuchtigkeit
    00:00 +30°C° 0 mm 1 m/S 748 mmHg 68%
    01:00 +29°C° 0 mm 1 m/S 748 mmHg 69%
    02:00 +29°C° 0 mm 1 m/S 747 mmHg 70%
    03:00 +28°C° 0 mm 1 m/S 748 mmHg 71%
    04:00 +28°C° 0 mm 1 m/S 748 mmHg 71%
    05:00 +28°C° 0 mm 1 m/S 748 mmHg 72%
    06:00 +29°C° 0 mm 1 m/S 748 mmHg 67%
    07:00 +31°C° 0 mm 1 m/S 748 mmHg 62%
    08:00 +33°C° 0 mm 1 m/S 749 mmHg 57%
    09:00 +34°C° 0 mm 1 m/S 748 mmHg 53%
    10:00 +36°C° 0 mm 1 m/S 748 mmHg 49%
    11:00 +39°C° 0 mm 1 m/S 748 mmHg 45%
    12:00 +40°C° 0 mm 1 m/S 748 mmHg 42%
    13:00 +40°C° 0 mm 1 m/S 747 mmHg 40%
    14:00 +41°C° 0 mm 1 m/S 747 mmHg 37%
    15:00 +40°C° 0 mm 1 m/S 747 mmHg 40%
    16:00 +40°C° 0 mm 2 m/S 747 mmHg 43%
    17:00 +39°C° 0 mm 2 m/S 747 mmHg 46%
    18:00 +37°C° 0 mm 2 m/S 747 mmHg 51%
    19:00 +35°C° 0 mm 2 m/S 748 mmHg 56%
    20:00 +34°C° 0 mm 2 m/S 748 mmHg 60%
    21:00 +32°C° 0 mm 1 m/S 748 mmHg 63%
    22:00 +31°C° 0 mm 1 m/S 748 mmHg 66%
    23:00 +31°C° 0 mm 1 m/S 748 mmHg 68%
    Mehr zeigen